Weather History for Marathon, FL

Change the Weather History Date:

Friday, April 5, 2013

  Actual Average Record
Temperature  
Mean Temperature 75 °F 76 °F  
Max Temperature 81 °F 82 °F 87 °F (2008)
Min Temperature 68 °F 71 °F 64 °F (2004)
Degree Days  
Heating Degree Days 0 0  
Month to date heating degree days 0 0  
Since 1 July heating degree days 36 81  
Cooling Degree Days 10 11  
Month to date cooling degree days 73 55  
Year to date cooling degree days 861 720  
Growing Degree Days 24 (Base 50)    
Moisture  
Dew Point 65 °F    
Average Humidity 74    
Maximum Humidity 84    
Minimum Humidity 64    
Precipitation  
Precipitation 1.89 in 0.08 in 1.89 in (2013)
Month to date precipitation 1.89 0.38  
Year to date precipitation 5.66 6.59  
Snow  
Snow 0.00 in - - ()
Month to date snowfall 0.0  
Since 1 July snowfall 0.0  
Snow Depth 0.00 in    
Sea Level Pressure  
Sea Level Pressure 29.92 in    
Wind  
Wind Speed 9 mph (NW)    
Max Wind Speed 25 mph    
Max Gust Speed 32 mph    
Visibility 7 miles    
Events Rain , Thunderstorm    
T = Trace of Precipitation, MM = Missing Value Source: NWS Daily Summary

Daily Weather History Graph

Daily Weather History Graph

Search for Another Location

Airport:

Trip Planner

Search our weather history database for the weather conditions in past years. The results will help you decide how hot, cold, wet, or windy it might be!

Date:

Astronomy

Apr. 05, 2013 Rise Set
Actual Time 7:11 AM EDT 7:42 PM EDT
Civil Twilight 6:48 AM EDT 8:05 PM EDT
Nautical Twilight 6:21 AM EDT 8:32 PM EDT
Astronomical Twilight 5:54 AM EDT 8:59 PM EDT
Moon 3:48 AM EDT (4/5) 3:31 PM EDT (4/5)
Length of Visible Light 13h 16m
Length of Day
12h 30m
Waning Crescent, 24% of the Moon is Illuminated
Apr 5
Waning Crescent
Apr 10
New
Apr 18
First Quarter
Apr 25
Full
May 2
Last Quarter

Hourly Weather History & Observations

Time (EDT) Temp. Heat Index Dew Point Humidity Pressure Visibility Wind Dir Wind Speed Gust Speed Precip Events Conditions
12:53 AM 80.1 °F 83.8 °F 72.0 °F 76% 29.97 in 10.0 mi SSE 8.1 mph - N/A   Mostly Cloudy
1:46 AM 80.6 °F 84.6 °F 71.6 °F 74% 29.94 in 10.0 mi South 5.8 mph - 0.01 in Thunderstorm Overcast
1:53 AM 80.1 °F 83.8 °F 72.0 °F 76% 29.94 in 9.0 mi SSE 6.9 mph - 0.01 in Thunderstorm Mostly Cloudy
1:58 AM 80.6 °F 84.6 °F 71.6 °F 74% 29.93 in 9.0 mi SSE 8.1 mph - N/A Thunderstorm Mostly Cloudy
2:46 AM 78.8 °F - 71.6 °F 78% 29.92 in 7.0 mi Calm Calm - 0.03 in Rain , Thunderstorm Light Thunderstorms and Rain
2:53 AM 79.0 °F - 72.0 °F 79% 29.93 in 1.2 mi WNW 12.7 mph 16.1 mph 0.18 in Rain , Thunderstorm Heavy Thunderstorms and Rain
3:03 AM 75.2 °F - 69.8 °F 83% 29.95 in 2.0 mi SE 9.2 mph 32.2 mph 0.08 in Rain , Thunderstorm Heavy Thunderstorms and Rain
3:08 AM 73.4 °F - 66.2 °F 78% 29.97 in 1.5 mi WNW 13.8 mph 26.5 mph 0.13 in Rain , Thunderstorm Heavy Thunderstorms and Rain
3:25 AM 69.8 °F - 64.4 °F 83% 29.92 in 1.0 mi North 18.4 mph 32.2 mph 0.48 in Rain , Thunderstorm Heavy Thunderstorms and Rain
3:32 AM 71.6 °F - 64.4 °F 78% 29.94 in 2.0 mi North 12.7 mph 26.5 mph 0.67 in Rain , Thunderstorm Heavy Thunderstorms and Rain
3:39 AM 71.6 °F - 64.4 °F 78% 29.95 in 5.0 mi North 10.4 mph 18.4 mph 0.69 in Rain , Thunderstorm Light Thunderstorms and Rain
3:53 AM 72.0 °F - 66.0 °F 81% 29.98 in 6.0 mi NNW 10.4 mph 19.6 mph 0.70 in Rain , Thunderstorm Light Thunderstorms and Rain
4:00 AM 71.6 °F - 66.2 °F 83% 29.99 in 4.0 mi NNW 15.0 mph 23.0 mph 0.02 in Rain , Thunderstorm Thunderstorms and Rain
4:24 AM 71.6 °F - 64.4 °F 78% 29.96 in 5.0 mi North 17.3 mph 27.6 mph 0.07 in Rain , Thunderstorm Rain
4:33 AM 71.6 °F - 64.4 °F 78% 29.96 in 8.0 mi North 16.1 mph 29.9 mph 0.07 in Rain , Thunderstorm Light Rain
4:53 AM 71.1 °F - 63.0 °F 75% 29.95 in 10.0 mi North 15.0 mph 25.3 mph 0.07 in   Overcast
5:53 AM 72.0 °F - 64.0 °F 76% 29.98 in 10.0 mi NNE 9.2 mph - N/A   Overcast
6:53 AM 73.0 °F - 64.0 °F 73% 29.95 in 10.0 mi NE 8.1 mph - 0.01 in   Mostly Cloudy
7:53 AM 73.9 °F - 64.0 °F 71% 29.96 in 10.0 mi ENE 6.9 mph - N/A   Overcast
8:53 AM 75.0 °F - 64.0 °F 69% 29.96 in 10.0 mi ENE 5.8 mph - N/A   Scattered Clouds
9:53 AM 75.0 °F - 64.0 °F 69% 29.97 in 10.0 mi East 5.8 mph - N/A   Mostly Cloudy
10:53 AM 75.0 °F - 64.9 °F 71% 30.00 in 7.0 mi WSW 4.6 mph - 0.00 in Rain Light Rain
11:53 AM 73.9 °F - 66.9 °F 79% 29.95 in 10.0 mi South 3.5 mph - 0.05 in   Mostly Cloudy
12:53 PM 75.0 °F - 66.0 °F 73% 29.93 in 10.0 mi SSE 10.4 mph - 0.01 in   Scattered Clouds
1:53 PM 77.0 °F - 64.9 °F 66% 29.87 in 10.0 mi South 11.5 mph 19.6 mph 0.01 in   Mostly Cloudy
2:53 PM 78.1 °F - 66.0 °F 66% 29.87 in 10.0 mi SW 3.5 mph - N/A   Mostly Cloudy
3:53 PM 77.0 °F - 66.9 °F 71% 29.88 in 5.0 mi Calm Calm - 0.02 in Rain Rain
4:45 PM 73.4 °F - 66.2 °F 78% 29.87 in 8.0 mi North 12.7 mph 21.9 mph 0.02 in Rain Light Rain
4:53 PM 73.0 °F - 64.9 °F 76% 29.85 in 8.0 mi North 17.3 mph 29.9 mph 0.02 in Rain Light Rain
5:12 PM 71.6 °F - 66.2 °F 83% 29.85 in 2.0 mi North 8.1 mph 23.0 mph 0.06 in Rain Rain
5:23 PM 71.6 °F - 64.4 °F 78% 29.84 in 1.2 mi NNW 13.8 mph 25.3 mph 0.11 in Rain Heavy Rain
5:30 PM 71.6 °F - 64.4 °F 78% 29.86 in 1.5 mi NW 17.3 mph 25.3 mph 0.15 in Rain , Thunderstorm Heavy Rain
5:42 PM 69.8 °F - 64.4 °F 83% 29.85 in 0.5 mi NW 10.4 mph 28.8 mph 0.22 in Rain , Thunderstorm Heavy Thunderstorms and Rain
5:49 PM 68.0 °F - 62.6 °F 83% 29.86 in 0.5 mi WNW 8.1 mph - 0.27 in Rain , Thunderstorm Heavy Thunderstorms and Rain
5:53 PM 68.0 °F - 63.0 °F 84% 29.85 in 0.5 mi WNW 3.5 mph - 0.30 in Rain , Thunderstorm Heavy Thunderstorms and Rain
5:58 PM 68.0 °F - 62.6 °F 83% 29.86 in 1.0 mi West 5.8 mph - 0.04 in Rain , Thunderstorm Heavy Thunderstorms and Rain
6:07 PM 68.0 °F - 62.6 °F 83% 29.86 in 3.0 mi West 6.9 mph - 0.11 in Rain , Thunderstorm Light Thunderstorms and Rain
6:20 PM 69.8 °F - 62.6 °F 78% 29.86 in 4.0 mi West 6.9 mph - 0.19 in Rain , Thunderstorm Light Rain
6:44 PM 71.6 °F - 64.4 °F 78% 29.86 in 10.0 mi West 10.4 mph - 0.32 in   Mostly Cloudy
6:53 PM 72.0 °F - 66.0 °F 81% 29.87 in 10.0 mi WSW 4.6 mph - 0.36 in   Mostly Cloudy
7:53 PM 71.1 °F - 66.0 °F 84% 29.88 in 10.0 mi West 3.5 mph - 0.15 in   Mostly Cloudy
8:40 PM 71.6 °F - 66.2 °F 83% 29.91 in 10.0 mi West 6.9 mph - N/A   Overcast
8:53 PM 72.0 °F - 64.9 °F 78% 29.91 in 10.0 mi WNW 8.1 mph - N/A   Overcast
9:03 PM 73.4 °F - 64.4 °F 73% 29.92 in 10.0 mi NW 9.2 mph - N/A   Overcast
9:32 PM 71.6 °F - 64.4 °F 78% 29.94 in 10.0 mi NW 10.4 mph 20.7 mph N/A   Overcast
9:53 PM 72.0 °F - 64.0 °F 76% 29.95 in 10.0 mi NW 12.7 mph 20.7 mph N/A   Overcast
10:11 PM 71.6 °F - 62.6 °F 73% 29.95 in 10.0 mi NW 12.7 mph 20.7 mph N/A   Mostly Cloudy
10:53 PM 71.1 °F - 61.0 °F 70% 29.96 in 10.0 mi NW 17.3 mph 24.2 mph N/A   Mostly Cloudy
11:53 PM 71.1 °F - 59.0 °F 66% 29.97 in 10.0 mi NW 17.3 mph 25.3 mph N/A   Clear